カタログに戻る

STARLINK-34244

運用中通信VLEO
NORAD 65351·PAYLOAD·🇺🇸 United States

打ち上げ Aug 28, 2025 から Cape Canaveral Space Force Station

Loading…

次のパス (今後24時間)

TLE

最新Source: CelesTrak SupGP

元期: Sep 14, 2026, 14:43 UTC

1 65351C 25190A   26257.61368056 -.00098683  00000+0 -29170-2 0  2577
2 65351  53.1603   6.8986 0001334  82.8174 273.8421 15.34425142    17

AllMySatでSTARLINK-34244をリアルタイム追跡

Download on the App Store